sat.trackr.live / text

‹ back to catalog

STARLINK-11536 [DTC]

NORAD 62563 · 2025-006K

PAYLOAD ACTIVE UNKNOWN

§ Identity

Operator
Country
US
Launch date
2025-01-10
Launch site
AFETR
Launch vehicle
Mass (kg)
RCS (m²)

Purposes: comms

External: N2YO · Heavens-Above · Gunter

§ Orbital elements

Epoch: 2026-05-24T23:42:14.351040Z

Period
91.67 min
Inclination
43.0049°
Eccentricity
0.0002962
Mean motion
15.70860927 rev/d
Perigee alt
354.4 km
Apogee alt
358.4 km
Semi-major
6,734.6 km
B*
1.3452e-3
RAAN
39.8530°
Arg perigee
259.7538°
Mean anomaly
100.2996°
Rev number
7,860

§ Raw data

STARLINK-11536 [DTC]1 62563U 25006K   26144.98766610  .00176029  00000+0  13452-2 0  99962 62563  43.0049  39.8530 0002962 259.7538 100.2996 15.70860927 78603

JSON: /api/v1/satellites/62563 · /tle

For live sub-satellite position, see the globe view (requires WebGL).

§ Visibility from observer

Set your observer location to see the next 7 days of passes ≥ 10°. The values pass through the URL so the page stays shareable.

No JS? Fill the form by hand. The geolocation button needs JavaScript.